Вернуться в каталог

CZ-6A DEB

АктивенPO
NORAD 61472·DEBRIS·🇨🇳 China

Запущен Aug 6, 2024 с Taiyuan Satellite Launch Center

Loading…

Ближайшие Пролёты (ближайшие 24 часа)

TLE

СвежийSource: Space-Track

Эпоха: Sep 14, 2026, 11:55 UTC

1 61472U 24140AAE 26257.49670838  .00001032  00000-0  77820-3 0  9991
2 61472  89.0329 273.5129 0231434  48.1042 313.9613 13.81610131102226

Отслеживайте CZ-6A DEB в реальном времени с AllMySat

Download on the App Store